Location: Gallinara
(44.0333°N, 8.2333°E)
Time: 16:48:31
(UTC+00:00)

Cosmos 1689 Rocket - Pass Details

Date: 25 September 2020
Orbit: 362 x 378 km, 97.5° (Epoch: 28 October)

Event Time Altitude Azimuth Distance (km) Brightness Sun altitude
Rises 04:09:45 0° 154° (SSE) 2,239 6.1 -13.0°
Reaches altitude 10° 04:11:43 10° 147° (SSE) 1,395 5.2 -12.7°
Maximum altitude 04:14:34 44° 74° (ENE) 542 3.4 -12.2°
Drops below altitude 10° 04:17:28 10° 0° (N) 1,413 5.1 -11.7°
Sets 04:19:29 0° 354° (N) 2,273 6.0 -11.3°
